DW4719 Vilanova I la Geltru ES current weather conditions

sailwx.info

Wind from 257 at 1 knots

Air temperature 14.4° C
Dewpoint 8.4° C

Last reported at 2017-Feb-20 17:54 UTC.
Time now 2017-Feb-20 18:37 UTC

Location: N 41°13' E 001°44'.
View on Google Maps.

See reports from other nearby stations

  
Tides and Currents Weather Stations Pressure Air Temp Water Temp Dewpoint Dewpoint Depression Visibility Wind Speed Wind Dir Waves Ship Positions
date/time (UTC)wind fromknots sea level pressurealtimeterstation pressurevisibilityair tempwater tempwave heightnotes
2017-Feb-20 17:54 257 1 14.4
2017-Feb-20 17:49 271 0 14.4
2017-Feb-20 17:44 001 1 14.4
2017-Feb-20 17:39 001 2 14.4
2017-Feb-20 17:34 260 4 14.4
2017-Feb-20 17:29 270 4 14.4
2017-Feb-20 17:24 244 4 15.0
2017-Feb-20 17:19 234 4 15.0
2017-Feb-20 17:14 278 5 15.6
2017-Feb-20 17:09 268 4 15.6
2017-Feb-20 17:04 274 3 15.6
2017-Feb-20 16:59 243 2 16.1
2017-Feb-20 16:54 241 2 16.1
2017-Feb-20 16:49 287 1 16.1
2017-Feb-20 16:44 265 2 16.1
2017-Feb-20 16:39 295 3 15.6
2017-Feb-20 16:34 294 5 15.6
2017-Feb-20 16:29 289 5 15.6
2017-Feb-20 16:24 261 6 15.6
2017-Feb-20 16:19 271 6 15.6
2017-Feb-20 16:14 295 6 15.6
2017-Feb-20 16:09 289 6 16.1
2017-Feb-20 16:04 257 6 16.1
2017-Feb-20 15:59 241 6 16.1
2017-Feb-20 15:54 258 6 16.1
2017-Feb-20 15:49 246 6 15.6
2017-Feb-20 15:44 233 7 15.6
2017-Feb-20 15:39 256 6 15.6
2017-Feb-20 15:34 267 6 16.1
2017-Feb-20 15:29 264 6 16.1
2017-Feb-20 15:24 265 6 16.1
2017-Feb-20 15:19 277 5 16.1
2017-Feb-20 15:14 256 6 16.1
2017-Feb-20 15:09 247 7 15.6
2017-Feb-20 15:04 264 7 15.6
2017-Feb-20 14:59 291 6 16.1
2017-Feb-20 14:54 246 6 16.1
2017-Feb-20 14:49 253 6 16.1
2017-Feb-20 14:44 264 6 16.1
2017-Feb-20 14:39 233 5 16.1
2017-Feb-20 14:34 251 3 16.7
2017-Feb-20 14:29 261 3 16.1
2017-Feb-20 14:24 254 5 16.1
2017-Feb-20 14:19 263 6 16.1
2017-Feb-20 14:14 258 6 16.1
2017-Feb-20 14:09 257 6 16.1
2017-Feb-20 14:04 267 6 16.1
2017-Feb-20 13:59 264 6 16.1
2017-Feb-20 13:54 264 5 16.1
2017-Feb-20 13:49 282 5 15.6
2017-Feb-20 13:44 261 4 15.6
2017-Feb-20 13:39 275 3 15.6
2017-Feb-20 13:34 232 3 15.0
2017-Feb-20 13:29 253 3 15.0
2017-Feb-20 13:24 267 3 15.0
2017-Feb-20 13:19 250 4 14.4
2017-Feb-20 13:14 226 4 14.4
2017-Feb-20 13:09 248 4 14.4
2017-Feb-20 13:04 257 4 14.4
2017-Feb-20 12:59 272 4 14.4
2017-Feb-20 12:54 184 4 14.4
2017-Feb-20 12:49 254 4 14.4
2017-Feb-20 12:44 237 4 14.4
2017-Feb-20 12:39 260 5 14.4
2017-Feb-20 12:34 248 6 14.4
2017-Feb-20 12:29 281 6 14.4
2017-Feb-20 12:24 257 5 14.4
2017-Feb-20 12:19 216 5 14.4
2017-Feb-20 12:14 270 5 14.4
2017-Feb-20 12:09 261 5 14.4
2017-Feb-20 12:04 246 5 15.0
2017-Feb-20 11:59 241 5 14.4
2017-Feb-20 11:54 254 4 15.0
2017-Feb-20 11:49 264 4 15.0
2017-Feb-20 11:44 272 4 15.0
2017-Feb-20 11:39 246 4 15.0
2017-Feb-20 11:34 217 4 15.0
2017-Feb-20 11:29 272 3 15.6
2017-Feb-20 11:24 256 2 15.6
2017-Feb-20 11:19 264 1 16.1
2017-Feb-20 11:14 076 0 16.1
2017-Feb-20 11:09 312 1 15.6
2017-Feb-20 11:04 356 1 15.6
2017-Feb-20 10:59 071 1 15.6
2017-Feb-20 10:54 075 2 15.6
2017-Feb-20 10:49 096 1 15.0
2017-Feb-20 10:44 223 1 15.0
2017-Feb-20 10:39 347 1 14.4
2017-Feb-20 10:34 360 2 14.4
2017-Feb-20 10:29 344 1 14.4
2017-Feb-20 10:24 339 1 14.4
2017-Feb-20 10:19 332 1 14.4
2017-Feb-20 10:14 308 1 14.4
2017-Feb-20 10:09 023 1 13.9
2017-Feb-20 10:04 032 2 13.9
2017-Feb-20 09:59 343 1 13.9
2017-Feb-20 09:54 322 1 13.9
2017-Feb-20 09:49 024 1 13.9
2017-Feb-20 09:44 082 1 13.9
2017-Feb-20 09:39 073 1 13.3
2017-Feb-20 09:34 357 1 13.3
2017-Feb-20 09:29 339 1 12.8
2017-Feb-20 09:24 047 1 12.8
2017-Feb-20 09:19 320 1 12.8
2017-Feb-20 09:14 326 1 12.2
2017-Feb-20 09:09 342 0 12.2
2017-Feb-20 09:04 352 0 11.7
2017-Feb-20 08:59 329 0 11.7
2017-Feb-20 08:54 285 0 11.7
2017-Feb-20 08:49 326 0 11.1
2017-Feb-20 08:44 271 0 11.1
2017-Feb-20 08:39 282 0 11.1
2017-Feb-20 08:34 282 1 10.6
2017-Feb-20 08:29 281 1 10.6
2017-Feb-20 08:24 275 1 10.6
2017-Feb-20 08:19 284 1 10.0
2017-Feb-20 08:14 288 1 10.0
2017-Feb-20 08:09 346 1 9.4
2017-Feb-20 08:04 320 1 9.4
2017-Feb-20 07:59 330 0 9.4
2017-Feb-20 07:54 089 0 9.4
2017-Feb-20 07:49 092 0 8.9
2017-Feb-20 07:41 359 0 8.3
2017-Feb-20 07:39 021 0 8.3
2017-Feb-20 07:34 316 0 8.3
2017-Feb-20 07:29 119 0 7.8
2017-Feb-20 07:24 326 0 7.8
2017-Feb-20 07:19 049 1 7.8
2017-Feb-20 07:14 048 0 7.2
2017-Feb-20 07:09 073 0 7.2
2017-Feb-20 07:04 073 0 7.2
2017-Feb-20 06:59 088 1 7.2
2017-Feb-20 06:54 088 1 7.2
2017-Feb-20 06:49 096 0 6.7
2017-Feb-20 06:44 085 0 6.7
2017-Feb-20 06:39 083 0 6.7
2017-Feb-20 06:34 085 0 6.7
2017-Feb-20 06:29 085 0 6.7
2017-Feb-20 06:24 085 0 6.7
2017-Feb-20 06:19 085 0 7.2
2017-Feb-20 06:14 086 1 7.2
2017-Feb-20 06:09 056 1 7.2
2017-Feb-20 06:04 048 1 7.2
2017-Feb-20 05:59 072 1 7.2
2017-Feb-20 05:54 080 1 7.2
2017-Feb-20 05:49 076 1 7.2
2017-Feb-20 05:44 086 1 7.2
2017-Feb-20 05:39 097 0 7.2
2017-Feb-20 05:34 097 0 7.2
2017-Feb-20 05:29 097 0 7.2
2017-Feb-20 05:24 041 0 7.2
2017-Feb-20 05:19 040 1 7.2
2017-Feb-20 05:14 089 1 7.2
2017-Feb-20 05:09 119 0 7.2
2017-Feb-20 05:04 003 0 7.2
2017-Feb-20 04:59 062 0 7.2
2017-Feb-20 04:54 017 0 7.2
2017-Feb-20 04:49 017 0 7.2
2017-Feb-20 04:44 059 0 7.2
2017-Feb-20 04:39 075 0 7.2
2017-Feb-20 04:34 073 0 7.2
2017-Feb-20 04:29 072 0 7.2
2017-Feb-20 04:24 079 7.2
2017-Feb-20 04:19 078 0 7.2
2017-Feb-20 04:14 073 0 7.2
2017-Feb-20 04:09 075 7.8
2017-Feb-20 04:04 076 7.8
2017-Feb-20 03:59 072 0 7.8
2017-Feb-20 03:54 071 0 7.8
2017-Feb-20 03:49 069 0 7.8
2017-Feb-20 03:44 071 0 8.3
2017-Feb-20 03:40 068 0 8.3
2017-Feb-20 03:35 071 0 8.3
2017-Feb-20 03:29 071 1 8.3
2017-Feb-20 03:24 082 0 7.8
2017-Feb-20 03:19 065 0 7.8
2017-Feb-20 03:14 072 0 7.8
2017-Feb-20 03:09 073 2 7.8
2017-Feb-20 03:04 072 2 7.8
2017-Feb-20 02:59 093 2 7.8
2017-Feb-20 02:54 071 1 7.8
2017-Feb-20 02:49 066 1 7.8
2017-Feb-20 02:44 085 1 7.8
2017-Feb-20 02:39 083 1 8.3
2017-Feb-20 02:34 083 0 8.3
2017-Feb-20 02:29 072 0 7.8
2017-Feb-20 02:24 073 0 7.8
2017-Feb-20 02:19 360 7.8
2017-Feb-20 02:14 360 0 7.8
2017-Feb-20 02:09 360 0 7.8
2017-Feb-20 02:04 016 0 7.8
2017-Feb-20 01:59 082 0 7.8
2017-Feb-20 01:54 082 0 7.8
2017-Feb-20 01:49 086 0 7.8
2017-Feb-20 01:44 083 0 7.8
2017-Feb-20 01:39 080 0 7.8
2017-Feb-20 01:34 082 0 7.8
2017-Feb-20 01:29 080 0 7.8
2017-Feb-20 01:24 080 0 7.8
2017-Feb-20 01:19 082 0 7.8
2017-Feb-20 01:14 080 0 7.8
2017-Feb-20 01:09 017 0 7.8
2017-Feb-20 01:04 017 0 8.3
2017-Feb-20 00:59 062 0 8.3
2017-Feb-20 00:54 010 0 8.3
2017-Feb-20 00:49 068 0 8.3
2017-Feb-20 00:44 065 0 8.3
2017-Feb-20 00:39 065 0 8.3
2017-Feb-20 00:34 076 0 8.3
2017-Feb-20 00:29 025 0 8.3
2017-Feb-20 00:24 025 0 8.3
2017-Feb-20 00:19 031 0 8.3
2017-Feb-20 00:14 082 0 8.3
2017-Feb-20 00:09 360 0 8.3
2017-Feb-20 00:04 360 0 8.3
2017-Feb-19 23:59 360 0 8.3
2017-Feb-19 23:54 013 0 8.9
2017-Feb-19 23:49 058 1 8.9
2017-Feb-19 23:44 049 1 8.9
2017-Feb-19 23:39 008 1 8.9
2017-Feb-19 23:34 024 1 9.4
2017-Feb-19 23:29 079 1 9.4
2017-Feb-19 23:24 059 2 9.4
2017-Feb-19 23:19 027 1 9.4
2017-Feb-19 23:14 072 1 9.4
2017-Feb-19 23:09 058 0 9.4
2017-Feb-19 23:04 062 0 9.4
2017-Feb-19 22:59 052 0 9.4
2017-Feb-19 22:54 055 0 9.4
2017-Feb-19 22:49 066 1 9.4
2017-Feb-19 22:44 069 1 10.0
2017-Feb-19 22:39 075 1 10.0
2017-Feb-19 22:34 049 1 10.0
2017-Feb-19 22:29 048 0 10.0
2017-Feb-19 22:24 048 0 10.0
2017-Feb-19 22:19 032 0 10.0
2017-Feb-19 22:14 357 0 10.0
2017-Feb-19 22:09 357 0 10.0
2017-Feb-19 22:04 353 0 10.0
2017-Feb-19 21:59 353 0 10.0
2017-Feb-19 21:54 353 0 10.0
2017-Feb-19 21:49 360 0 10.0
2017-Feb-19 21:44 032 0 10.6
2017-Feb-19 21:39 227 0 10.6
2017-Feb-19 21:34 360 0 10.6
2017-Feb-19 21:29 360 0 10.6
2017-Feb-19 21:24 360 0 10.6
2017-Feb-19 21:19 360 0 10.6
2017-Feb-19 21:14 360 0 10.6
2017-Feb-19 21:09 360 0 10.6
2017-Feb-19 21:04 342 0 11.1
2017-Feb-19 20:59 343 0 11.1
2017-Feb-19 20:54 360 0 11.1
2017-Feb-19 20:49 360 11.1
2017-Feb-19 20:44 360 0 11.1
2017-Feb-19 20:39 360 0 11.1
2017-Feb-19 20:34 360 0 11.1
2017-Feb-19 20:29 360 0 11.1
2017-Feb-19 20:24 337 1 11.7
2017-Feb-19 20:19 347 1 11.7
2017-Feb-19 20:14 360 1 11.7
2017-Feb-19 20:09 360 0 11.7
2017-Feb-19 20:04 336 0 12.2
2017-Feb-19 19:59 336 1 12.2
2017-Feb-19 19:54 336 1 12.2
2017-Feb-19 19:49 337 1 12.2
2017-Feb-19 19:44 020 0 12.8
2017-Feb-19 19:39 001 12.8
2017-Feb-19 19:34 107 12.8
2017-Feb-19 19:29 107 12.8
2017-Feb-19 19:24 103 13.3
2017-Feb-19 19:19 107 13.3
2017-Feb-19 19:14 107 13.3
2017-Feb-19 19:09 106 13.3
2017-Feb-19 19:04 107 13.3
2017-Feb-19 18:59 107 0 13.3
2017-Feb-19 18:54 107 0 13.3
2017-Feb-19 18:49 106 0 13.3
2017-Feb-19 18:44 113 0 13.3
2017-Feb-19 18:39 114 13.3
2017-Feb-19 18:34 131 0 13.3
2017-Feb-19 18:29 131 0 13.3
2017-Feb-19 18:24 131 13.3
2017-Feb-19 18:19 131 13.3
2017-Feb-19 18:14 130 13.3
2017-Feb-19 18:09 130 0 13.3
2017-Feb-19 18:04 130 1 13.3
2017-Feb-19 17:59 133 1 13.3
2017-Feb-19 17:54 154 0 13.3
2017-Feb-19 17:49 152 0 13.9
2017-Feb-19 17:44 152 0 13.9
2017-Feb-19 17:39 152 0 13.9
2017-Feb-19 17:34 154 0 13.9
2017-Feb-19 17:29 154 0 13.9
2017-Feb-19 17:24 154 0 13.9
2017-Feb-19 17:19 152 13.9
2017-Feb-19 17:14 152 0 13.9
2017-Feb-19 17:09 151 0 13.9
2017-Feb-19 17:04 151 0 13.9
2017-Feb-19 16:59 150 0 14.4
2017-Feb-19 16:54 232 0 14.4
2017-Feb-19 16:49 232 0 14.4
2017-Feb-19 16:44 213 1 14.4
2017-Feb-19 16:39 205 1 14.4
2017-Feb-19 16:34 237 1 14.4
2017-Feb-19 16:29 161 2 14.4
2017-Feb-19 16:24 140 1 14.4
2017-Feb-19 16:19 150 1 14.4
2017-Feb-19 16:14 148 1 14.4
2017-Feb-19 16:09 169 1 14.4
2017-Feb-19 16:04 188 2 14.4
2017-Feb-19 15:59 141 1 14.4
2017-Feb-19 15:54 195 1 15.0
2017-Feb-19 15:49 158 2 14.4
2017-Feb-19 15:44 164 2 14.4
2017-Feb-19 15:39 195 2 15.0
2017-Feb-19 15:34 184 2 15.0
2017-Feb-19 15:29 217 2 15.0
2017-Feb-19 15:24 216 2 15.0
2017-Feb-19 15:19 150 2 15.6
2017-Feb-19 15:14 157 2 15.6
2017-Feb-19 15:09 167 2 15.6
2017-Feb-19 15:04 191 2 15.6
2017-Feb-19 14:59 205 2 15.6
2017-Feb-19 14:55 130 3 15.0
2017-Feb-19 14:49 181 1 15.6
2017-Feb-19 14:44 169 1 16.1
2017-Feb-19 14:39 181 2 15.6
2017-Feb-19 14:34 216 2 15.6
2017-Feb-19 14:29 246 2 15.6
2017-Feb-19 14:24 192 3 15.6
2017-Feb-19 14:19 157 3 15.6
2017-Feb-19 14:14 141 3 15.6
2017-Feb-19 14:09 167 3 16.1
2017-Feb-19 14:04 243 3 16.1
2017-Feb-19 13:59 227 2 16.1
2017-Feb-19 13:54 308 3 16.1
2017-Feb-19 13:49 236 4 15.6
2017-Feb-19 13:44 232 3 16.1
2017-Feb-19 13:39 282 3 15.6
2017-Feb-19 13:34 222 3 15.6
2017-Feb-19 13:29 291 4 15.6
2017-Feb-19 13:24 202 3 15.6
2017-Feb-19 13:19 246 3 16.1
2017-Feb-19 13:14 198 2 16.1
2017-Feb-19 13:09 229 3 15.6
2017-Feb-19 13:04 186 3 15.6
2017-Feb-19 12:59 188 2 15.6
2017-Feb-19 12:54 232 3 15.6
2017-Feb-19 12:49 172 4 15.6
2017-Feb-19 12:39 256 4 15.6
2017-Feb-19 12:34 236 4 15.6
2017-Feb-19 12:29 230 4 15.6
2017-Feb-19 12:24 287 3 16.1
2017-Feb-19 12:19 234 4 16.1
2017-Feb-19 12:14 251 4 16.1
2017-Feb-19 12:09 246 3 16.1
2017-Feb-19 12:04 258 2 16.1
2017-Feb-19 11:59 237 2 16.7
2017-Feb-19 11:54 212 2 16.7
2017-Feb-19 11:49 241 2 16.1
2017-Feb-19 11:44 244 4 15.6
2017-Feb-19 11:39 233 3 15.6
2017-Feb-19 11:34 239 3 15.6
2017-Feb-19 11:29 236 2 15.6
2017-Feb-19 11:24 251 2 15.6
2017-Feb-19 11:19 292 2 15.6
2017-Feb-19 11:14 250 2 15.6
2017-Feb-19 11:09 244 3 15.0
2017-Feb-19 11:04 233 3 15.0
2017-Feb-19 10:59 261 2 15.0
2017-Feb-19 10:54 291 2 15.0
2017-Feb-19 10:49 241 3 15.0
2017-Feb-19 10:44 271 3 15.6
2017-Feb-19 10:39 199 2 15.6
2017-Feb-19 10:34 184 1 16.1
2017-Feb-19 10:29 319 0 16.1
2017-Feb-19 10:24 017 1 16.1
2017-Feb-19 10:19 030 2 15.6
2017-Feb-19 10:14 107 1 15.6
2017-Feb-19 10:09 107 1 15.6
2017-Feb-19 10:04 319 1 15.6
2017-Feb-19 09:59 109 1 15.0
2017-Feb-19 09:54 353 2 15.0
2017-Feb-19 09:49 313 2 15.0
2017-Feb-19 09:44 347 1 15.0
2017-Feb-19 09:39 292 1 14.4
2017-Feb-19 09:34 329 2 14.4
2017-Feb-19 09:29 298 2 14.4
2017-Feb-19 09:24 024 2 13.9
2017-Feb-19 09:19 347 1 13.9
2017-Feb-19 09:14 072 0 13.9
2017-Feb-19 09:09 322 0 13.3
2017-Feb-19 09:04 047 0 13.3
2017-Feb-19 08:59 336 0 12.8
2017-Feb-19 08:54 086 0 12.8
2017-Feb-19 08:49 035 0 12.8
2017-Feb-19 08:44 051 0 12.2
2017-Feb-19 08:39 027 1 12.2
2017-Feb-19 08:34 090 0 12.2
2017-Feb-19 08:29 305 1 11.7
2017-Feb-19 08:24 092 1 11.7
2017-Feb-19 08:19 104 1 11.7
2017-Feb-19 08:14 096 1 11.7
2017-Feb-19 08:09 096 0 11.1
2017-Feb-19 08:04 065 0 11.1
2017-Feb-19 07:59 083 0 11.1
2017-Feb-19 07:54 086 0 10.6
2017-Feb-19 07:49 083 0 10.6
2017-Feb-19 07:44 083 0 10.0
2017-Feb-19 07:39 102 1 10.0
2017-Feb-19 07:34 092 1 10.0
2017-Feb-19 07:29 092 1 10.0
2017-Feb-19 07:24 095 0 10.0
2017-Feb-19 07:19 106 0 9.4
2017-Feb-19 07:14 088 0 9.4
2017-Feb-19 07:09 088 0 9.4
2017-Feb-19 07:04 088 0 9.4
2017-Feb-19 06:59 088 0 9.4
2017-Feb-19 06:54 086 0 9.4
2017-Feb-19 06:49 086 1 9.4
2017-Feb-19 06:44 088 2 9.4
2017-Feb-19 06:39 080 2 9.4
2017-Feb-19 06:34 096 1 9.4
2017-Feb-19 06:29 061 1 9.4
2017-Feb-19 06:24 061 0 9.4
2017-Feb-19 06:19 080 0 10.0
2017-Feb-19 06:14 082 1 10.0
2017-Feb-19 06:09 099 0 10.0
2017-Feb-19 06:04 097 0 9.4
2017-Feb-19 05:59 069 0 9.4
2017-Feb-19 05:54 068 0 10.0
2017-Feb-19 05:49 066 0 10.0
2017-Feb-19 05:44 066 0 10.0
2017-Feb-19 05:39 066 1 10.0
2017-Feb-19 05:34 066 1 10.0
2017-Feb-19 05:29 038 2 10.0
2017-Feb-19 05:24 080 2 10.0
2017-Feb-19 05:19 071 1 10.0
2017-Feb-19 05:14 080 0 10.0
2017-Feb-19 05:09 071 0 10.0
2017-Feb-19 05:04 072 0 10.0
2017-Feb-19 04:59 058 0 10.0
2017-Feb-19 04:54 059 0 10.0
2017-Feb-19 04:49 099 0 10.0
2017-Feb-19 04:44 095 0 10.0
2017-Feb-19 04:39 095 0 10.0
2017-Feb-19 04:34 096 0 10.0
2017-Feb-19 04:29 096 0 10.0
2017-Feb-19 04:24 096 0 10.0
2017-Feb-19 04:19 095 1 10.0
2017-Feb-19 04:14 095 1 10.0
2017-Feb-19 04:09 068 0 10.0
2017-Feb-19 04:04 068 1 10.0
2017-Feb-19 03:59 068 0 10.0
2017-Feb-19 03:54 071 0 10.0
2017-Feb-19 03:49 069 1 10.0
2017-Feb-19 03:44 085 1 10.0
2017-Feb-19 03:39 068 0 10.0
2017-Feb-19 03:34 066 10.6
2017-Feb-19 03:29 031 0 10.6
2017-Feb-19 03:24 040 0 10.6
2017-Feb-19 03:19 044 0 10.6
2017-Feb-19 03:14 044 0 10.6
2017-Feb-19 03:09 073 0 10.6
2017-Feb-19 03:04 075 0 10.6
2017-Feb-19 02:59 075 0 10.6
2017-Feb-19 02:54 073 0 10.6
2017-Feb-19 02:49 076 1 10.6
2017-Feb-19 02:44 076 2 10.6
2017-Feb-19 02:39 089 3 10.6
2017-Feb-19 02:34 078 2 10.6
2017-Feb-19 02:29 061 2 10.6
2017-Feb-19 02:24 080 1 10.6
2017-Feb-19 02:19 073 0 10.0
2017-Feb-19 02:14 071 1 10.0
2017-Feb-19 02:09 071 1 10.0
2017-Feb-19 02:04 072 1 10.0
2017-Feb-19 01:59 085 1 10.0
2017-Feb-19 01:54 097 0 10.0
2017-Feb-19 01:49 061 0 10.0
2017-Feb-19 01:44 061 0 10.0
2017-Feb-19 01:39 061 0 10.0
2017-Feb-19 01:34 062 0 10.0
2017-Feb-19 01:29 062 0 9.4
2017-Feb-19 01:24 021 0 9.4
2017-Feb-19 01:19 021 0 9.4
2017-Feb-19 01:14 360 0 9.4
2017-Feb-19 01:09 078 0 9.4
2017-Feb-19 01:04 078 0 9.4
2017-Feb-19 00:59 078 2 9.4
2017-Feb-19 00:54 073 2 9.4
2017-Feb-19 00:49 078 2 9.4
2017-Feb-19 00:44 089 2 9.4
2017-Feb-19 00:39 066 2 9.4
2017-Feb-19 00:34 079 2 9.4
2017-Feb-19 00:29 097 1 9.4
2017-Feb-19 00:24 085 0 9.4
2017-Feb-19 00:19 061 0 9.4
2017-Feb-19 00:14 061 0 9.4
2017-Feb-19 00:09 061 0 9.4
2017-Feb-19 00:04 056 1 9.4
2017-Feb-18 23:59 035 1 8.9
2017-Feb-18 23:54 083 0 9.4
2017-Feb-18 23:49 032 1 8.9
2017-Feb-18 23:44 032 1 8.9
2017-Feb-18 23:39 066 1 8.9
2017-Feb-18 23:34 065 0 8.9
2017-Feb-18 23:29 017 0 9.4
2017-Feb-18 23:24 004 1 9.4
2017-Feb-18 23:19 083 1 9.4
2017-Feb-18 23:14 059 0 9.4
2017-Feb-18 23:09 056 0 9.4
2017-Feb-18 23:04 055 0 9.4
2017-Feb-18 22:59 054 0 9.4
2017-Feb-18 22:54 052 0 9.4
2017-Feb-18 22:49 054 0 10.0
2017-Feb-18 22:44 011 0 10.0
2017-Feb-18 22:39 082 0 10.0
2017-Feb-18 22:34 083 0 10.0
2017-Feb-18 22:29 085 0 10.0
2017-Feb-18 22:24 082 0 10.0
2017-Feb-18 22:19 083 0 10.0
2017-Feb-18 22:14 083 0 10.0
2017-Feb-18 22:09 085 0 10.0
2017-Feb-18 22:04 086 1 10.0
2017-Feb-18 21:59 085 1 10.6
2017-Feb-18 21:54 083 1 10.6
2017-Feb-18 21:49 076 2 10.6
2017-Feb-18 21:44 080 2 10.6
2017-Feb-18 21:39 092 3 10.6
2017-Feb-18 21:34 080 2 10.6
2017-Feb-18 21:29 085 2 10.6
2017-Feb-18 21:24 071 3 10.6
2017-Feb-18 21:19 065 3 10.6
2017-Feb-18 21:14 079 3 10.6
2017-Feb-18 21:09 083 3 10.6
2017-Feb-18 21:04 090 2 10.6
2017-Feb-18 20:59 095 1 10.6
2017-Feb-18 20:54 104 1 10.6
2017-Feb-18 20:49 086 1 10.6
2017-Feb-18 20:44 079 1 10.6
2017-Feb-18 20:39 104 1 10.6
2017-Feb-18 20:34 103 1 10.6
2017-Feb-18 20:29 082 1 10.6
2017-Feb-18 20:24 085 1 11.1
2017-Feb-18 20:19 086 1 11.1
2017-Feb-18 20:14 080 1 11.1
2017-Feb-18 20:09 078 2 11.1
2017-Feb-18 20:04 089 1 11.7
2017-Feb-18 19:59 073 2 11.7
2017-Feb-18 19:54 109 2 11.7
2017-Feb-18 19:49 073 2 11.7
2017-Feb-18 19:44 045 2 11.7
2017-Feb-18 19:39 065 1 11.7
2017-Feb-18 19:34 086 0 12.2
2017-Feb-18 19:29 056 0 12.2
2017-Feb-18 19:24 055 0 12.2
2017-Feb-18 19:19 100 1 12.2
2017-Feb-18 19:14 104 1 12.2
2017-Feb-18 19:09 134 1 12.2
2017-Feb-18 19:04 090 1 12.2
2017-Feb-18 18:59 126 2 12.2
2017-Feb-18 18:54 130 2 12.2
2017-Feb-18 18:49 130 1 12.2
2017-Feb-18 18:44 107 2 12.2
2017-Feb-18 18:39 137 2 12.2
2017-Feb-18 18:34 138 2 12.2
2017-Feb-18 18:29 128 2 12.2
2017-Feb-18 18:24 121 3 12.2
2017-Feb-18 18:19 120 3 12.2
2017-Feb-18 18:08 133 2 12.8
2017-Feb-18 18:04 119 1 12.8